This is the latest recevied weather packets stored in our database for station/object SP6KBU-12. If no packets are shown the sender has not sent any weather packets the latest 10 day(s).
| Time | Temp. | Humidity | Pressure | Rain* | Wind** | Luminosity | Snow |
|---|---|---|---|---|---|---|---|
| 1787727492 | 15° C | 76% | 1023.1 hPa | - | - | - | - |
| 1787726592 | 14.44° C | 78% | 1022.9 hPa | - | - | - | - |
| 1787725692 | 13.89° C | 80% | 1022.8 hPa | - | - | - | - |
| 1787724791 | 13.33° C | 81% | 1022.9 hPa | - | - | - | - |
| 1787723891 | 12.78° C | 82% | 1022.9 hPa | - | - | - | - |
| 1787722991 | 12.22° C | 83% | 1022.8 hPa | - | - | - | - |
| 1787722091 | 11.67° C | 84% | 1022.6 hPa | - | - | - | - |
| 1787721190 | 11.67° C | 85% | 1022.6 hPa | - | - | - | - |
| 1787720290 | 11.11° C | 85% | 1022.7 hPa | - | - | - | - |
| 1787719390 | 11.11° C | 86% | 1022.5 hPa | - | - | - | - |
| 1787718490 | 10.56° C | 87% | 1022.6 hPa | - | - | - | - |
| 1787717590 | 10.56° C | 84% | 1022.6 hPa | - | - | - | - |
| 1787716689 | 10.56° C | 87% | 1022.5 hPa | - | - | - | - |
| 1787715789 | 10.56° C | 87% | 1022.5 hPa | - | - | - | - |
| 1787714888 | 10.56° C | 84% | 1022.3 hPa | - | - | - | - |
| 1787713988 | 10.56° C | 85% | 1022.3 hPa | - | - | - | - |
| 1787713088 | 10.56° C | 85% | 1022.4 hPa | - | - | - | - |
| 1787712188 | 10.56° C | 84% | 1022.4 hPa | - | - | - | - |
| 1787711287 | 10.56° C | 85% | 1022.4 hPa | - | - | - | - |
| 1787710386 | 10.56° C | 85% | 1022.4 hPa | - | - | - | - |
| 1787709486 | 10.56° C | 85% | 1022.4 hPa | - | - | - | - |
| 1787708586 | 10.56° C | 84% | 1022.4 hPa | - | - | - | - |
| 1787707686 | 10.56° C | 87% | 1022.4 hPa | - | - | - | - |
| 1787706786 | 11.11° C | 86% | 1022.2 hPa | - | - | - | - |
| 1787705886 | 11.11° C | 86% | 1022.1 hPa | - | - | - | - |
* Rain since midnight (hover to see other rain measurements)
** Current wind speed in m/s (hover to see current wind gust speed)